Regional Weather Roundup
Issued by NWS Little Rock, AR

Home | Current Version | Previous Version | Text Only | Print | Product List | Glossary On
Versions: 1 2 3 4 5 6 7 8 9 10 11 12 13 14 15 16 17 18 19 20 21 22 23 24 25 26 27 28 29 30 31 32
000
ASUS44 KLZK 271905
RWRLZK

WEATHER ROUNDUP FOR ARKANSAS
NATIONAL WEATHER SERVICE LITTLE ROCK AR
200 PM CDT THU APR 27 2017

NOTE: "FAIR" INDICATES FEW OR NO CLOUDS BELOW 12,000 FEET WITH NO
SIGNIFICANT WEATHER AND/OR OBSTRUCTIONS TO VISIBILITY.

ARZ001-003-010-029-272000-
NORTHWEST ARKANSAS

CITY           SKY/WX    TMP DP  RH WIND       PRES   REMARKS
FAYETTEVILLE   MOSUNNY   61  44  53 SW6       29.80F
FORT SMITH     PTSUNNY   65  43  44 CALM      29.80F
HARRISON       SUNNY     62  43  49 S5        29.80F
BENTONVILLE    SUNNY     61  45  55 SW9       29.81F
ROGERS         SUNNY     62  44  51 SE10      29.81S
SILOAM SPGS    MOSUNNY   61  43  51 S7        29.79F
HIGHFILL       SUNNY     61  45  55 VRB6      29.80F
SPRINGDALE     MOSUNNY   61  45  55 CALM      29.82F
$$

ARZ004-005-016-272000-
NORTH CENTRAL ARKANSAS

CITY           SKY/WX    TMP DP  RH WIND       PRES   REMARKS
BATESVILLE     SUNNY     66  46  48 S3        29.81S
FLIPPIN        SUNNY     63  41  45 CALM      29.77F
MTN HOME       SUNNY     62  44  51 VRB5      29.78F
$$

ARZ040-041-272000-
WEST CENTRAL ARKANSAS

CITY           SKY/WX    TMP DP  RH WIND       PRES   REMARKS
MENA           MOSUNNY   70  48  46 SE5       29.81F
MOUNT IDA      MOSUNNY   68  42  38 VRB5      29.80F
$$

ARZ009-017-025-026-028-272000-
NORTHEAST ARKANSAS

CITY           SKY/WX    TMP DP  RH WIND       PRES   REMARKS
CORNING        FAIR      59  50  72 SW12      29.84F
JONESBORO      SUNNY     62  49  62 VRB7      29.83F
NEWPORT        SUNNY     63  49  60 S9        29.83
WALNUT RIDGE   SUNNY     61  46  59 S7        29.82F
BLYTHEVILLE    PTSUNNY   62  51  67 SW10      29.85F
$$

ARZ022-023-033-042-044-272000-
CENTRAL ARKANSAS

CITY           SKY/WX    TMP DP  RH WIND       PRES   REMARKS
LITTLE ROCK    MOSUNNY   64  49  57 SE9       29.85R
N LITTLE ROCK    N/A     65  50  58 S3        29.84F
JACKSONVILLE   MOSUNNY   66  51  57 SW7       29.83R
CONWAY           N/A     66  50  55 CALM      29.82R
SEARCY         SUNNY     64  49  57 MISG      29.84F
HOT SPRINGS    MOSUNNY   66  49  54 VRB3      29.84F
RUSSELLVILLE   SUNNY     64  49  57 CALM      29.82S
CLINTON          N/A     64  45  48 CALM      29.82R HAZE
$$

ARZ036-272000-
EAST ARKANSAS

CITY           SKY/WX    TMP DP  RH WIND       PRES   REMARKS
WEST MEMPHIS   MOSUNNY   62  50  64 CALM      29.84F
$$

ARZ050-053-066-070-073-272000-
SOUTHWEST ARKANSAS

CITY           SKY/WX    TMP DP  RH WIND       PRES   REMARKS
ARKADELPHIA    FAIR      65  51  60 CALM      29.84F
CAMDEN         SUNNY     72  46  40 CALM      29.84F
TEXARKANA      SUNNY     67  50  54 VRB3      29.81F
EL DORADO      SUNNY     68  50  52 N5        29.84F
DE QUEEN       SUNNY     67  51  56 VRB6      29.79F
$$

ARZ056-057-069-272000-
SOUTHEAST ARKANSAS

CITY           SKY/WX    TMP DP  RH WIND       PRES   REMARKS
PINE BLUFF     SUNNY     64  48  56 S6        29.86R
STUTTGART      SUNNY     63  43  48 SE6       29.85S
MONTICELLO     SUNNY     67  50  54 VRB5      29.84R

$$






USA.gov is the U.S. government's official web portal to all federal, state and local government web resources and services.